カタログに戻る

STARLINK-33776

運用中通信VLEO
NORAD 63851·PAYLOAD·🇺🇸 United States

打ち上げ May 7, 2025 から Cape Canaveral Space Force Station

Loading…

次のパス (今後24時間)

TLE

最新Source: CelesTrak SupGP

元期: Sep 14, 2026, 20:43 UTC

1 63851C 25093R   26257.86368056 -.00015912  00000+0 -57528-3 0  2572
2 63851  43.0023  89.3535 0000994 275.1243 174.5164 15.27646816    11

AllMySatでSTARLINK-33776をリアルタイム追跡

Download on the App Store